This demonstration page uses our WeatherBlox Daily Observations layout. Learn more.

Left ArrowRight Arrow

Hourly Observations for August 11, 2015

Temp ( °F °C ) Dew Point ( °F °C ) Humidity (%) Winds ( mph kmh ) Pressure ( in mb ) Visibility ( mi km ) Precip ( " mm )
12:53 am 00:53 Clear with Smoke 80 26.7 55 12.8 42 42 SSW 10 17 29.79 1009 10 16 0.00 0.00
1:53 am 01:53 Clear with Smoke 78 25.6 54 12.2 43 43 S 12 19 29.79 1009 10 16 0.00 0.00
2:53 am 02:53 Clear with Smoke 77 25 54 12.2 45 45 SW 6 9 29.81 1009 10 16 0.00 0.00
3:53 am 03:53 Clear with Smoke 74 23.3 56 13.3 54 54 S 7 11 29.81 1010 10 16 0.00 0.00
4:53 am 04:53 Clear with Smoke 73 22.8 55 12.8 53 53 SW 5 7 29.81 1010 10 16 0.00 0.00
5:53 am 05:53 Clear with Smoke 70 21.1 55 12.8 59 59 ESE 5 7 29.83 1010 10 16 0.00 0.00
6:53 am 06:53 Partly Cloudy 68 20 55 13 64 64 undefined N/A N/A 2 3 0.00 0.00
7:53 am 07:53 Sunny 71 21.7 56 13.3 59 59 SSE 3 6 29.86 1011 10 16 0.00 0.00
8:53 am 08:53 Sunny 73 22.8 56 13.3 55 55 S 5 7 29.87 1012 10 16 0.00 0.00
9:53 am 09:53 Sunny 75 23.9 56 13.3 52 52 S 6 9 29.87 1012 10 16 0.00 0.00
10:53 am 10:53 Sunny 78 25.6 56 13.3 47 47 VRB 3 6 29.86 1011 10 16 0.00 0.00
11:53 am 11:53 Sunny 83 28.3 55 12.8 38 38 VRB 3 6 29.85 1011 10 16 0.00 0.00
12:53 pm 12:53 Sunny 86 30 52 11.1 31 31 SW 7 11 29.84 1011 10 16 0.00 0.00
1:53 pm 13:53 Sunny 90 32.2 44 6.7 20 20 undefined N/A 29.83 1010 10 16 0.00 0.00
2:53 pm 14:53 Sunny 90 32.2 41 5 18 18 SSW 13 20 29.82 1010 10 16 0.00 0.00
3:53 pm 15:53 Sunny 91 32.8 36 2.2 14 14 SSW 8 13 29.80 1009 10 16 0.00 0.00
4:53 pm 16:53 Sunny 91 32.8 37 2.8 15 15 S 12 19 29.78 1009 10 16 0.00 0.00
5:53 pm 17:53 Sunny 91 32.8 40 4.4 17 17 S 8 13 29.77 1008 10 16 0.00 0.00
6:53 pm 18:53 Sunny 89 31.7 42 5.6 19 19 SSE 12 19 29.77 1008 10 16 0.00 0.00
7:53 pm 19:53 Sunny 85 29.4 45 7.2 25 25 S 9 15 29.79 1009 10 16 0.00 0.00
8:53 pm 20:53 Clear 82 27.8 47 8.3 29 29 S 6 9 29.82 1010 10 16 0.00 0.00
9:53 pm 21:53 Clear 76 24.4 46 7.8 35 35 NE 5 7 29.84 1011 10 16 0.00 0.00
10:53 pm 22:53 Clear 74 23.3 49 9.4 41 41 Calm 29.86 1011 10 16 0.00 0.00
11:53 pm 23:53 Clear 73 22.8 48 8.9 41 41 N 5 7 29.88 1012 10 16 0.00 0.00

Powered by AerisWeather